FW7746 Weather Reports


Display with metric or nautical units.
time (UTC)temp
F
wind
direction
speed
MPH
gust
MPH
rain 1hr
in
rain 24hr
in
rain mn
in
humidity
%
barometer
mb
20260504191103 75 317 4.0 12.0 0.00 0.00 0.00 29 1007.4
20260504190603 75 316 5.0 12.0 0.00 0.00 0.00 29 1007.3
20260504190104 75 338 1.0 5.0 0.00 0.00 0.00 30 1007.5
20260504185604 75 312 1.0 6.0 0.00 0.00 0.00 30 1007.5
20260504185103 74 322 2.0 12.0 0.00 0.00 0.00 29 1007.6
20260504184103 74 326 4.0 12.0 0.00 0.00 0.00 30 1007.6
20260504183603 74 321 3.0 14.0 0.00 0.00 0.00 31 1007.6
20260504183103 74 339 3.0 13.0 0.00 0.00 0.00 31 1007.7
20260504182603 75 311 2.0 12.0 0.00 0.00 0.00 31 1007.6
20260504182104 74 315 1.0 10.0 0.00 0.00 0.00 31 1007.6
20260504181603 74 306 3.0 9.0 0.00 0.00 0.00 30 1007.6
20260504181104 74 322 2.0 10.0 0.00 0.00 0.00 31 1007.6
20260504180603 74 323 5.0 10.0 0.00 0.00 0.00 30 1007.6
20260504180104 74 317 3.0 8.0 0.00 0.00 0.00 30 1007.7
20260504175604 74 309 4.0 10.0 0.00 0.00 0.00 29 1007.7
20260504174103 74 319 2.0 10.0 0.00 0.00 0.00 31 1007.9
20260504173604 74 319 1.0 9.0 0.00 0.00 0.00 32 1007.9
20260504173104 74 329 2.0 6.0 0.00 0.00 0.00 31 1007.9
20260504172603 74 328 0.0 5.0 0.00 0.00 0.00 31 1007.8
20260504172104 74 336 0.0 1.0 0.00 0.00 0.00 32 1007.9
20260504171103 73 346 0.0 3.0 0.00 0.00 0.00 33 1007.8
20260504170106 72 287 0.0 0.0 0.00 0.00 0.00 36 1007.8
20260504160104 64 232 0.0 0.0 0.00 0.00 0.00 47 1008.1
20260504150603 57 236 1.0 3.0 0.00 0.00 0.00 59 1008.3
20260504150104 56 186 0.0 3.0 0.00 0.00 0.00 60 1008.3
20260504141103 50 234 0.0 0.0 0.00 0.00 0.00 71 1008.3
20260504140603 50 234 0.0 1.0 0.00 0.00 0.00 71 1008.3
20260504140104 49 212 0.0 3.0 0.00 0.00 0.00 72 1008.4
20260504130603 47 192 0.0 0.0 0.00 0.00 0.00 70 1008.3
20260504130104 47 200 0.0 0.0 0.00 0.00 0.00 70 1008.3
20260504120104 48 5 0.0 0.0 0.00 0.00 0.00 68 1008.0
20260504110603 48 327 0.0 0.0 0.00 0.00 0.00 67 1008.4
20260504110104 48 327 0.0 0.0 0.00 0.00 0.00 66 1008.4
20260504100603 48 325 0.0 0.0 0.00 0.00 0.00 62 1008.5
20260504100104 48 325 0.0 0.0 0.00 0.00 0.00 62 1008.5
20260504090104 50 325 0.0 0.0 0.00 0.00 0.00 59 1008.4
20260504081603 52 325 0.0 0.0 0.00 0.00 0.00 55 1008.5
20260504081104 52 325 0.0 0.0 0.00 0.00 0.00 55 1008.5
20260504080603 53 325 0.0 0.0 0.00 0.00 0.00 55 1008.5
20260504080104 53 325 0.0 0.0 0.00 0.00 0.00 54 1008.6
20260504070103 57 325 0.0 0.0 0.00 0.00 0.00 49 1008.7
20260504060104 61 325 0.0 0.0 0.00 0.00 0.00 43 1008.7
20260504050604 66 325 0.0 0.0 0.00 0.00 0.00 36 1008.5
20260504050104 66 325 0.0 0.0 0.00 0.00 0.00 35 1008.4
20260504045104 67 325 0.0 0.0 0.00 0.00 0.00 34 1008.4
20260504044603 67 325 0.0 0.0 0.00 0.00 0.00 33 1008.6
20260504044104 67 325 0.0 0.0 0.00 0.00 0.00 33 1008.6
20260504043604 67 325 0.0 0.0 0.00 0.00 0.00 33 1008.4
20260504043104 67 325 0.0 0.0 0.00 0.00 0.00 33 1008.3
20260504042604 68 325 0.0 1.0 0.00 0.00 0.00 32 1008.3
20260504042103 68 324 0.0 0.0 0.00 0.00 0.00 32 1008.3
20260504041603 68 324 0.0 2.0 0.00 0.00 0.00 32 1008.4
20260504041104 69 339 1.0 3.0 0.00 0.00 0.00 31 1008.4
20260504040604 69 327 1.0 2.0 0.00 0.00 0.00 31 1008.3
20260504040104 69 326 1.0 3.0 0.00 0.00 0.00 31 1008.2
20260504035604 69 325 1.0 3.0 0.00 0.00 0.00 30 1008.1
20260504035103 70 325 0.0 3.0 0.00 0.00 0.00 30 1008.1
20260504034603 70 331 2.0 9.0 0.00 0.00 0.00 29 1008.1
20260504033604 71 324 1.0 3.0 0.00 0.00 0.00 29 1008.0
20260504033104 71 318 1.0 6.0 0.00 0.00 0.00 29 1007.8
20260504032604 71 324 1.0 3.0 0.00 0.00 0.00 29 1007.8
20260504032104 71 309 1.0 6.0 0.00 0.00 0.00 28 1007.8
20260504031604 72 321 3.0 14.0 0.00 0.00 0.00 28 1007.7
20260504031103 72 328 3.0 10.0 0.00 0.00 0.00 28 1007.7
20260504030603 72 325 6.0 12.0 0.00 0.00 0.00 28 1007.7
20260504030104 72 20 6.0 13.0 0.00 0.00 0.00 28 1007.5
20260504025105 72 322 0.0 7.0 0.00 0.00 0.00 31 1007.5
20260504024604 72 338 1.0 13.0 0.00 0.00 0.00 31 1007.5
20260504024103 73 330 1.0 14.0 0.00 0.00 0.00 30 1007.5
20260504023603 74 331 1.0 3.0 0.00 0.00 0.00 29 1007.5
20260504023104 74 315 1.0 12.0 0.00 0.00 0.00 27 1007.6
20260504022604 74 309 6.0 14.0 0.00 0.00 0.00 26 1007.5
20260504022104 75 321 3.0 12.0 0.00 0.00 0.00 27 1007.4
20260504021604 75 326 4.0 12.0 0.00 0.00 0.00 27 1007.3
20260504021103 75 322 5.0 14.0 0.00 0.00 0.00 26 1007.2
20260504020604 75 323 4.0 12.0 0.00 0.00 0.00 26 1007.1
20260504020104 75 321 5.0 13.0 0.00 0.00 0.00 26 1007.2
20260504015604 76 325 4.0 12.0 0.00 0.00 0.00 26 1007.2
20260504015103 76 317 4.0 10.0 0.00 0.00 0.00 25 1007.2
20260504014604 76 321 1.0 12.0 0.00 0.00 0.00 24 1007.3
20260504014104 76 328 2.0 10.0 0.00 0.00 0.00 24 1007.3
20260504013604 76 329 5.0 13.0 0.00 0.00 0.00 25 1007.3
20260504013104 76 327 2.0 13.0 0.00 0.00 0.00 25 1007.3
20260504012604 77 331 4.0 10.0 0.00 0.00 0.00 25 1007.4
20260504012103 77 325 4.0 12.0 0.00 0.00 0.00 25 1007.4
20260504011103 77 331 0.0 5.0 0.00 0.00 0.00 25 1007.5
20260504010604 77 311 2.0 9.0 0.00 0.00 0.00 24 1007.5
20260504010104 77 319 2.0 12.0 0.00 0.00 0.00 24 1007.6
20260504005603 77 325 2.0 12.0 0.00 0.00 0.00 24 1007.6
20260504005104 77 327 1.0 12.0 0.00 0.00 0.00 23 1007.6
20260504004604 78 323 2.0 9.0 0.00 0.00 0.00 23 1007.7
20260504003603 77 333 2.0 10.0 0.00 0.00 0.00 24 1007.8
20260504002603 76 76 1.0 10.0 0.00 0.00 0.00 24 1007.8
20260504001604 76 341 0.0 3.0 0.00 0.00 0.00 25 1007.8
20260504001104 76 321 1.0 8.0 0.00 0.00 0.00 25 1008.0
20260504000104 76 324 1.0 5.0 0.00 0.00 0.00 24 1008.2
20260503235104 77 320 1.0 12.0 0.00 0.00 0.00 25 1008.2
20260503234604 77 330 1.0 8.0 0.00 0.00 0.00 25 1008.0
20260503234104 77 327 1.0 8.0 0.00 0.00 0.00 27 1008.1
20260503233604 78 318 3.0 9.0 0.00 0.00 0.00 26 1008.1
20260503233104 78 324 3.0 12.0 0.00 0.00 0.00 26 1008.1
20260503232604 79 346 3.0 15.0 0.00 0.00 0.00 25 1008.1
20260503231604 79 322 2.0 12.0 0.00 0.00 0.00 24 1008.0
20260503231105 79 320 2.0 12.0 0.00 0.00 0.00 23 1008.1
20260503230604 79 58 2.0 5.0 0.00 0.00 0.00 23 1008.3
20260503230104 79 320 0.0 2.0 0.00 0.00 0.00 22 1008.4
20260503225604 78 326 1.0 6.0 0.00 0.00 0.00 22 1008.4
20260503225103 79 324 0.0 1.0 0.00 0.00 0.00 23 1008.5
20260503224104 79 80 1.0 3.0 0.00 0.00 0.00 23 1008.8
20260503223603 79 322 1.0 5.0 0.00 0.00 0.00 22 1008.9
20260503223103 79 308 0.0 5.0 0.00 0.00 0.00 23 1008.9
20260503222104 79 331 2.0 10.0 0.00 0.00 0.00 24 1009.1
20260503221604 79 313 1.0 8.0 0.00 0.00 0.00 22 1009.2
20260503221103 79 337 0.0 3.0 0.00 0.00 0.00 23 1009.4
20260503220603 79 322 1.0 3.0 0.00 0.00 0.00 22 1009.6
20260503220104 79 319 2.0 8.0 0.00 0.00 0.00 21 1009.6
20260503215604 80 324 3.0 12.0 0.00 0.00 0.00 21 1009.7
20260503215104 80 324 0.0 5.0 0.00 0.00 0.00 21 1009.7
20260503214603 80 128 0.0 3.0 0.00 0.00 0.00 22 1009.7
20260503214104 79 325 2.0 6.0 0.00 0.00 0.00 23 1009.7
20260503213603 79 330 0.0 3.0 0.00 0.00 0.00 22 1009.7
20260503213104 79 329 1.0 8.0 0.00 0.00 0.00 23 1009.8
20260503212604 80 329 1.0 3.0 0.00 0.00 0.00 22 1009.9
20260503212103 80 78 0.0 3.0 0.00 0.00 0.00 22 1009.9
20260503211604 80 326 1.0 5.0 0.00 0.00 0.00 23 1010.0
20260503210104 79 97 0.0 3.0 0.00 0.00 0.00 23 1010.1
20260503205604 79 77 2.0 7.0 0.00 0.00 0.00 23 1010.3
20260503205104 79 312 1.0 7.0 0.00 0.00 0.00 25 1010.3
20260503204604 77 82 1.0 3.0 0.00 0.00 0.00 26 1010.4
20260503204104 77 310 1.0 9.0 0.00 0.00 0.00 28 1010.4
20260503203603 76 321 1.0 9.0 0.00 0.00 0.00 29 1010.5
20260503203103 76 313 1.0 3.0 0.00 0.00 0.00 30 1010.6
20260503202604 76 331 3.0 7.0 0.00 0.00 0.00 28 1010.6
20260503201603 76 322 1.0 9.0 0.00 0.00 0.00 30 1010.8
20260503201104 76 329 2.0 12.0 0.00 0.00 0.00 31 1011.0
20260503200104 76 315 2.0 7.0 0.00 0.00 0.00 30 1011.0
20260503195604 76 308 2.0 3.0 0.00 0.00 0.00 31 1011.0
20260503195104 75 319 3.0 9.0 0.00 0.00 0.00 32 1011.2
20260503194104 74 316 1.0 3.0 0.00 0.00 0.00 31 1011.6
20260503193604 74 326 2.0 3.0 0.00 0.00 0.00 30 1011.7
20260503193104 74 330 1.0 8.0 0.00 0.00 0.00 31 1011.7
20260503192604 74 335 1.0 5.0 0.00 0.00 0.00 32 1011.7
20260503191603 73 329 1.0 8.0 0.00 0.00 0.00 33 1011.9